Location: Unspecified
(0.0000°N, 0.0000°E)
Time: 18:16:24
(UTC+00:00)

deb Briz - Pass Details

Date: 20 February 2026
Orbit: 1949 x 2166 km, 64.8° (Epoch: 6 March)

Event Time Altitude Azimuth Distance (km) Brightness Sun altitude
Rises 05:26:48 0° 334° (NNW) 5,586 ? -11.5°
Reaches altitude 10° 05:30:10 10° 332° (NNW) 4,607 ? -10.7°
Maximum altitude 05:42:14 73° 250° (WSW) 2,232 ? -7.7°
Drops below altitude 10° 05:54:34 10° 166° (SSE) 4,683 ? -4.7°
Sets 05:58:03 0° 164° (SSE) 5,681 ? -3.9°
